Regional Weather Roundup
Issued by NWS

Home | Current Version | Previous Version | Graphics & Text | Print | Product List | Glossary On
Versions: 1 2 3 4 5 6 7 8 9 10 11 12 13 14 15 16 17 18 19 20 21 22 23 24 25 26 27 28 29 30 31 32 33 34 35 36 37 38 39 40 41 42 43 44 45 46 47 48 49 50
000
ASUS43 KIND 222109
RWRIN

WEATHER ROUNDUP FOR INDIANA
NATIONAL WEATHER SERVICE INDIANAPOLIS IN
500 PM EDT SUN OCT 22 2017

NOTE: "FAIR" INDICATES FEW OR NO CLOUDS BELOW 12,000 FEET WITH NO
SIGNIFICANT WEATHER AND/OR OBSTRUCTIONS TO VISIBILITY.

* - STATION DOES NOT REPORT WEATHER SUCH AS PRECIPITATION OR FOG.

+ - STATION NOT QUALITY CONTROLLED BY THE NATIONAL WEATHER SERVICE.
    USE DATA WITH CAUTION...ESPECIALLY DEWPOINT AND RELATIVE
    HUMIDITY OBSERVATIONS.

INZ001>003-010>013-019-020-222200-
NORTHWEST INDIANA

CITY           SKY/WX    TMP DP  RH WIND       PRES   REMARKS
GARY /AIRPORT/ CLOUDY    72  61  68 S17G29    29.96R
KNOX *+        CLOUDY    73  57  56 S13G24    29.97R
LA PORTE +     CLOUDY    71  59  65 SW9       29.98R
MICHIGAN CITY+ HVY RAIN  68  61  77 SW12G22   29.98R
MONTICELLO +   CLOUDY    75  57  53 S13G20    29.97S
RENSSELAER +   LGT RAIN  70  54  56 S16G25    29.98R
VALPARAISO     CLOUDY    72  61  68 SW16G24   29.98R

$$

LMZ046-743>745-222200-
SOUTHERN LAKE MICHIGAN

STATION/POSITION TIME  TEMP    WIND        PRES    WAVE
                       AIR SEA DIR/SP/G            HT
                 (UTC) (F)     (DEG/KT/KT) (MB)    (FT)
BURNS HARBOR     2040   71     210/ 20/ 26 1014.6R
MICHIGAN CITY    2040   71     190/ 12/ 14   N/A
5NW MICH CITY    2100   67 58  200/ 16/ 23   N/A     2

$$

INZ004-005-014>016-021>024-222200-
NORTH CENTRAL INDIANA

CITY           SKY/WX    TMP DP  RH WIND       PRES   REMARKS
ELKHART        PTSUNNY   73  57  56 S14G21    29.98S
GOSHEN         CLOUDY    74  56  53 S9        29.99R
LOGANSPORT +   PTSUNNY   75  59  57 S16G22    29.99F
SOUTH BEND     CLOUDY    72  59  63 S9        29.98R
WARSAW +       CLOUDY    73  59  60 S5        30.00S

$$

INZ006>009-017-018-025>027-222200-
NORTHEAST INDIANA

CITY           SKY/WX    TMP DP  RH WIND       PRES   REMARKS
AUBURN +       MOSUNNY   77  54  44 S5        30.03R
FORT WAYNE     PTSUNNY   77  56  48 S16       30.02S
HUNTINGTON +   PTSUNNY   76  56  48 S10G18    30.02R
KENDALLVILLE + PTSUNNY   76  58  53 S12G18    30.02S

$$

INZ028-029-035-036-043>045-051>053-222200-
WEST CENTRAL INDIANA

CITY           SKY/WX    TMP DP  RH WIND       PRES   REMARKS
CRAWFORDSVL +  PTSUNNY   73  57  56 S18       29.99F
GREENCASTLE +  PTSUNNY   73  57  56 S9        30.01F
LAFAYETTE      LGT RAIN  73  60  63 SW12      29.97S
TERRE HAUTE    CLOUDY    76  58  53 S18G26    29.99S

$$

INZ030>032-037>040-046>048-054>057-064-065-222200-
CENTRAL INDIANA

CITY           SKY/WX    TMP DP  RH WIND       PRES   REMARKS
CP ATTERBURY + MOSUNNY   73  55  53 S20       30.05F
COLUMBUS       PTSUNNY   73  52  46 S17G25    30.06S
FISHERS *+     CLOUDY    75  63  64 S14G24    30.03F
FRANKFORT +    CLOUDY    78  60  54 S10G20    30.01F
GREENWOOD *+   PTSUNNY   79  60  51 S15G22    30.04F
INDIANAPOLIS   CLOUDY    76  58  53 S18       30.02S
-EAGLE CREEK   CLOUDY    76  57  51 S9        30.02S
KOKOMO +       CLOUDY    75  59  57 S15       30.02S
MARION +       CLOUDY    75  55  50 S21G26    30.04R
MT COMFORT *+  CLOUDY    75  63  64 S13G21    30.04F
SHELBYVILLE    CLOUDY    76  56  49 S16G22    30.05S
ZIONSVILLE +   CLOUDY    73  58  57 S12G18    30.03S

$$

INZ033-034-041-042-049-050-058-059-222200-
EAST CENTRAL INDIANA

CITY           SKY/WX    TMP DP  RH WIND       PRES   REMARKS
MUNCIE         SUNNY     77  56  48 S15G22    30.04R
RICHMOND +     SUNNY     73  54  49 S21       30.10F

$$

INZ060-061-067>069-081>083-085>088-222200-
SOUTHWEST INDIANA

CITY           SKY/WX    TMP DP  RH WIND       PRES   REMARKS
EVANSVILLE     CLOUDY    76  59  55 S12G20    30.00F
HUNTINGBURG +  CLOUDY    76  60  57 S13G18    30.02F
WASHINGTON +   PTSUNNY   75  55  49 S14G21    30.01S

$$

INZ062-063-066-070>080-084-089>092-222200-
SOUTH CENTRAL AND SOUTHEAST INDIANA

CITY           SKY/WX    TMP DP  RH WIND       PRES   REMARKS
BEDFORD +      CLOUDY    75  55  50 SE10      30.04S
BLOOMINGTON    CLOUDY    75  56  51 S9        30.02F
MADISON *+     PTSUNNY   73  52  46 S9G16     30.11S
NORTH VERNON + MOSUNNY   72  55  56 S9G20     30.08S
SEYMOUR +      PTSUNNY   75  55  50 S12       30.06F

$$





USA.gov is the U.S. government's official web portal to all federal, state and local government web resources and services.